Tracking 30995 objects as of 7-Jul-2025
HD Live streaming from Space Station
objects crossing your sky now

STARLINK-2133

Track STARLINK-2133 now!
10-day predictions
STARLINK-2133 is classified as:


NORAD ID: 47406
Int'l Code: 2021-005BK
Perigee: 553.4 km
Apogee: 555.2 km
Inclination: 53.1 °
Period: 95.6 minutes
Semi major axis: 6925 km
RCS: Unknown
Launch date: January 20, 2021
Source: United States (US)
Launch site: AIR FORCE EASTERN TEST RANGE (AFETR)
Your satellite tracking list
Your tracking list is empty




NASA's NSSDC Master Catalog

Two Line Element Set (TLE):
1 47406U 21005BK  25187.88367587  .00000337  00000-0  41502-4 0  9993
2 47406  53.0553  55.0850 0001302  83.7637 276.3500 15.06406370247038
Source of the keplerian elements: AFSPC